owner,sensor,date,latitude,longitude,vertical_datum,direction_of_sea_water_velocity,sea_water_speed,upward_sea_water_velocity,qcFlag 
TABS,ioos:station:wmo:42047:1,2006-01-01T00:00:00Z,27.8966,-93.5973,2.0,97.79394436,41.22079208,-99999.0,'11111222,11111222,99999999' 
TABS,ioos:station:wmo:42047:1,2006-01-01T00:30:00Z,27.8966,-93.5973,2.0,98.44439799,39.7004005,-99999.0,'11111222,11111222,99999999' 
TABS,ioos:station:wmo:42047:1,2006-01-01T01:00:00Z,27.8966,-93.5973,2.0,104.9610082,38.61912739,-99999.0,'11111222,11111222,99999999' 
TABS,ioos:station:wmo:42047:1,2006-01-01T01:30:00Z,27.8966,-93.5973,2.0,102.6230433,35.60050561,-99999.0,'11111222,11111222,99999999' 
TABS,ioos:station:wmo:42047:1,2006-01-01T02:00:00Z,27.8966,-93.5973,2.0,105.2117634,37.12061422,-99999.0,'11111222,11111222,99999999' 
TABS,ioos:station:wmo:42047:1,2006-01-01T02:30:00Z,27.8966,-93.5973,2.0,104.7964487,37.47262734,-99999.0,'11111222,11111222,99999999' 
TABS,ioos:station:wmo:42047:1,2006-01-01T03:00:00Z,27.8966,-93.5973,2.0,110.4348294,35.97384745,-99999.0,'11111222,11111222,99999999' 
TABS,ioos:station:wmo:42047:1,2006-01-01T03:30:00Z,27.8966,-93.5973,2.0,109.8695594,35.36535027,-99999.0,'11111222,11111222,99999999' 
TABS,ioos:station:wmo:42047:1,2006-01-01T04:00:00Z,27.8966,-93.5973,2.0,104.5170157,28.32430758,-99999.0,'11111222,11111222,99999999' 
TABS,ioos:station:wmo:42047:1,2006-01-01T04:30:00Z,27.8966,-93.5973,2.0,108.31554,30.35793142,-99999.0,'11111222,11111222,99999999' 
TABS,ioos:station:wmo:42047:1,2006-01-01T05:00:00Z,27.8966,-93.5973,2.0,104.5170157,28.32430758,-99999.0,'11111222,11111222,99999999' 
TABS,ioos:station:wmo:42047:1,2006-01-01T05:30:00Z,27.8966,-93.5973,2.0,104.0362106,24.94478903,-99999.0,'11111222,11111222,99999999' 
TABS,ioos:station:wmo:42047:1,2006-01-01T06:00:00Z,27.8966,-93.5973,2.0,101.1085162,22.31815405,-99999.0,'11111222,11111222,99999999' 
TABS,ioos:station:wmo:42047:1,2006-01-01T06:30:00Z,27.8966,-93.5973,2.0,91.52712281,19.13679702,-99999.0,'11111222,11111222,99999999' 
TABS,ioos:station:wmo:42047:1,2006-01-01T07:00:00Z,27.8966,-93.5973,2.0,88.30091263,17.5377108,-99999.0,'11111222,11111222,99999999' 
TABS,ioos:station:wmo:42047:1,2006-01-01T07:30:00Z,27.8966,-93.5973,2.0,85.39574496,17.31587999,-99999.0,'11111222,11111222,99999999' 
TABS,ioos:station:wmo:42047:1,2006-01-01T08:00:00Z,27.8966,-93.5973,2.0,83.07519393,17.74947887,-99999.0,'11111222,11111222,99999999' 
TABS,ioos:station:wmo:42047:1,2006-01-01T08:30:00Z,27.8966,-93.5973,2.0,77.69364403,18.72015491,-99999.0,'11111222,11111222,99999999' 
TABS,ioos:station:wmo:42047:1,2006-01-01T09:30:00Z,27.8966,-93.5973,2.0,84.94458519,19.40548891,-99999.0,'11111222,11111222,99999999' 
TABS,ioos:station:wmo:42047:1,2006-01-01T13:30:00Z,27.8966,-93.5973,2.0,87.97897439,20.13252344,-99999.0,'11111222,11111222,99999999' 
TABS,ioos:station:wmo:42047:1,2006-01-01T14:00:00Z,27.8966,-93.5973,2.0,84.67033263,18.40958989,-99999.0,'11111222,11111222,99999999' 
TABS,ioos:station:wmo:42047:1,2006-01-01T14:30:00Z,27.8966,-93.5973,2.0,80.39953975,18.40780813,-99999.0,'11111222,11111222,99999999' 
TABS,ioos:station:wmo:42047:1,2006-01-01T15:00:00Z,27.8966,-93.5973,2.0,74.12230084,19.77444057,-99999.0,'11111222,11111222,99999999' 
TABS,ioos:station:wmo:42047:1,2006-01-01T15:30:00Z,27.8966,-93.5973,2.0,74.43636305,19.38063208,-99999.0,'11111222,11111222,99999999' 
TABS,ioos:station:wmo:42047:1,2006-01-01T16:00:00Z,27.8966,-93.5973,2.0,65.90878987,22.58744784,-99999.0,'11111222,11111222,99999999' 
TABS,ioos:station:wmo:42047:1,2006-01-01T16:30:00Z,27.8966,-93.5973,2.0,51.24632532,24.76138324,-99999.0,'11111222,11111222,99999999' 
TABS,ioos:station:wmo:42047:1,2006-01-01T17:00:00Z,27.8966,-93.5973,2.0,57.32684282,26.09998084,-99999.0,'11111222,11111222,99999999' 
TABS,ioos:station:wmo:42047:1,2006-01-01T17:30:00Z,27.8966,-93.5973,2.0,56.40613531,28.10392499,-99999.0,'11111222,11111222,99999999' 
TABS,ioos:station:wmo:42047:1,2006-01-01T18:00:00Z,27.8966,-93.5973,2.0,57.09195335,29.46841869,-99999.0,'11111222,11111222,99999999' 
TABS,ioos:station:wmo:42047:1,2006-01-01T18:30:00Z,27.8966,-93.5973,2.0,61.28918776,29.14298543,-99999.0,'11111222,11111222,99999999' 
TABS,ioos:station:wmo:42047:1,2006-01-01T19:00:00Z,27.8966,-93.5973,2.0,68.70347632,34.77465888,-99999.0,'11111222,11111222,99999999' 
TABS,ioos:station:wmo:42047:1,2006-01-01T19:30:00Z,27.8966,-93.5973,2.0,69.2221881,32.95318194,-99999.0,'11111222,11111222,99999999' 
TABS,ioos:station:wmo:42047:1,2006-01-01T20:00:00Z,27.8966,-93.5973,2.0,71.48699941,34.80089798,-99999.0,'11111222,11111222,99999999' 
TABS,ioos:station:wmo:42047:1,2006-01-01T20:30:00Z,27.8966,-93.5973,2.0,68.44542011,34.92218922,-99999.0,'11111222,11111222,99999999' 
TABS,ioos:station:wmo:42047:1,2006-01-01T21:00:00Z,27.8966,-93.5973,2.0,78.34580628,36.88030504,-99999.0,'11111222,11111222,99999999' 
TABS,ioos:station:wmo:42047:1,2006-01-01T21:30:00Z,27.8966,-93.5973,2.0,77.45092834,39.81108012,-99999.0,'11111222,11111222,99999999' 
TABS,ioos:station:wmo:42047:1,2006-01-01T22:00:00Z,27.8966,-93.5973,2.0,82.90009696,39.64398567,-99999.0,'11111222,11111222,99999999' 
TABS,ioos:station:wmo:42047:1,2006-01-01T22:30:00Z,27.8966,-93.5973,2.0,83.86066446,40.95488738,-99999.0,'11111222,11111222,99999999' 
TABS,ioos:station:wmo:42047:1,2006-01-01T23:00:00Z,27.8966,-93.5973,2.0,87.89590585,38.67607658,-99999.0,'11111222,11111222,99999999' 
TABS,ioos:station:wmo:42047:1,2006-01-01T23:30:00Z,27.8966,-93.5973,2.0,88.37033815,35.5143647,-99999.0,'11111222,11111222,99999999' 
TABS,ioos:station:wmo:42047:1,2006-01-02T00:00:00Z,27.8966,-93.5973,2.0,90.06241353,36.72002179,-99999.0,'11111222,11111222,99999999' 
TABS,ioos:station:wmo:42047:1,2006-01-02T00:30:00Z,27.8966,-93.5973,2.0,92.23759753,35.85734095,-99999.0,'11111222,11111222,99999999' 
TABS,ioos:station:wmo:42047:1,2006-01-02T01:00:00Z,27.8966,-93.5973,2.0,98.8387838,37.6167157,-99999.0,'11111222,11111222,99999999' 
TABS,ioos:station:wmo:42047:1,2006-01-02T01:30:00Z,27.8966,-93.5973,2.0,95.74843825,36.14174871,-99999.0,'11111222,11111222,99999999' 
TABS,ioos:station:wmo:42047:1,2006-01-02T02:00:00Z,27.8966,-93.5973,2.0,96.95091861,34.29204135,-99999.0,'11111222,11111222,99999999' 
TABS,ioos:station:wmo:42047:1,2006-01-02T02:30:00Z,27.8966,-93.5973,2.0,99.43472759,34.16211352,-99999.0,'11111222,11111222,99999999' 
TABS,ioos:station:wmo:42047:1,2006-01-02T03:00:00Z,27.8966,-93.5973,2.0,101.5551174,30.70226213,-99999.0,'11111222,11111222,99999999' 
TABS,ioos:station:wmo:42047:1,2006-01-02T03:30:00Z,27.8966,-93.5973,2.0,100.1533648,28.76040681,-99999.0,'11111222,11111222,99999999' 
TABS,ioos:station:wmo:42047:1,2006-01-02T04:00:00Z,27.8966,-93.5973,2.0,101.0652138,27.09369115,-99999.0,'11111222,11111222,99999999' 
TABS,ioos:station:wmo:42047:1,2006-01-02T04:30:00Z,27.8966,-93.5973,2.0,99.25052634,26.6870699,-99999.0,'11111222,11111222,99999999' 
TABS,ioos:station:wmo:42047:1,2006-01-02T05:00:00Z,27.8966,-93.5973,2.0,104.4273733,26.28904905,-99999.0,'11111222,11111222,99999999' 
TABS,ioos:station:wmo:42047:1,2006-01-02T05:30:00Z,27.8966,-93.5973,2.0,98.93346684,25.11465907,-99999.0,'11111222,11111222,99999999' 
TABS,ioos:station:wmo:42047:1,2006-01-02T06:00:00Z,27.8966,-93.5973,2.0,97.68685257,23.40027778,-99999.0,'11111222,11111222,99999999' 
TABS,ioos:station:wmo:42047:1,2006-01-02T06:30:00Z,27.8966,-93.5973,2.0,98.58135492,28.54961471,-99999.0,'11111222,11111222,99999999' 
TABS,ioos:station:wmo:42047:1,2006-01-02T07:00:00Z,27.8966,-93.5973,2.0,99.60486087,27.08974898,-99999.0,'11111222,11111222,99999999' 
TABS,ioos:station:wmo:42047:1,2006-01-02T07:30:00Z,27.8966,-93.5973,2.0,102.0712213,25.53461376,-99999.0,'11111222,11111222,99999999' 
TABS,ioos:station:wmo:42047:1,2006-01-02T08:30:00Z,27.8966,-93.5973,2.0,93.45306869,20.5873772,-99999.0,'11111222,11111222,99999999' 
TABS,ioos:station:wmo:42047:1,2006-01-02T09:30:00Z,27.8966,-93.5973,2.0,102.8789503,20.05451071,-99999.0,'11111222,11111222,99999999' 
TABS,ioos:station:wmo:42047:1,2006-01-02T10:00:00Z,27.8966,-93.5973,2.0,99.07860009,21.35755136,-99999.0,'11111222,11111222,99999999' 
TABS,ioos:station:wmo:42047:1,2006-01-02T10:30:00Z,27.8966,-93.5973,2.0,103.4871107,20.75230108,-99999.0,'11111222,11111222,99999999' 
TABS,ioos:station:wmo:42047:1,2006-01-02T11:00:00Z,27.8966,-93.5973,2.0,106.4204032,19.88087775,-99999.0,'11111222,11111222,99999999' 
TABS,ioos:station:wmo:42047:1,2006-01-02T11:30:00Z,27.8966,-93.5973,2.0,106.839743,18.74375896,-99999.0,'11111222,11111222,99999999' 
TABS,ioos:station:wmo:42047:1,2006-01-02T12:00:00Z,27.8966,-93.5973,2.0,106.8896305,17.00342613,-99999.0,'11111222,11111222,99999999' 
TABS,ioos:station:wmo:42047:1,2006-01-02T12:30:00Z,27.8966,-93.5973,2.0,104.7905485,18.60652036,-99999.0,'11111222,11111222,99999999' 
TABS,ioos:station:wmo:42047:1,2006-01-02T13:30:00Z,27.8966,-93.5973,2.0,101.1591075,14.15767283,-99999.0,'11111222,11111222,99999999' 
TABS,ioos:station:wmo:42047:1,2006-01-02T14:00:00Z,27.8966,-93.5973,2.0,92.58931278,15.71604594,-99999.0,'11111222,11111222,99999999' 
TABS,ioos:station:wmo:42047:1,2006-01-02T14:30:00Z,27.8966,-93.5973,2.0,85.92533855,14.9177076,-99999.0,'11111222,11111222,99999999' 
TABS,ioos:station:wmo:42047:1,2006-01-02T15:30:00Z,27.8966,-93.5973,2.0,86.31773455,16.19343077,-99999.0,'11111222,11111222,99999999' 
TABS,ioos:station:wmo:42047:1,2006-01-02T16:00:00Z,27.8966,-93.5973,2.0,78.72137742,14.3674702,-99999.0,'11111222,11111222,99999999' 
TABS,ioos:station:wmo:42047:1,2006-01-02T16:30:00Z,27.8966,-93.5973,2.0,75.09044777,13.52535767,-99999.0,'11111222,11111222,99999999' 
TABS,ioos:station:wmo:42047:1,2006-01-02T17:00:00Z,27.8966,-93.5973,2.0,75.84113831,15.86186622,-99999.0,'11111222,11111222,99999999' 
TABS,ioos:station:wmo:42047:1,2006-01-02T18:00:00Z,27.8966,-93.5973,2.0,72.15202678,16.05256366,-99999.0,'11111222,11111222,99999999' 
TABS,ioos:station:wmo:42047:1,2006-01-02T19:00:00Z,27.8966,-93.5973,2.0,70.8341787,16.11311578,-99999.0,'11111222,11111222,99999999' 
TABS,ioos:station:wmo:42047:1,2006-01-02T19:30:00Z,27.8966,-93.5973,2.0,77.72126334,15.65818955,-99999.0,'11111222,11111222,99999999' 
TABS,ioos:station:wmo:42047:1,2006-01-02T20:30:00Z,27.8966,-93.5973,2.0,87.37982394,17.7185242,-99999.0,'11111222,11111222,99999999' 
TABS,ioos:station:wmo:42047:1,2006-01-02T21:00:00Z,27.8966,-93.5973,2.0,84.96275055,16.17246116,-99999.0,'11111222,11111222,99999999' 
TABS,ioos:station:wmo:42047:1,2006-01-02T21:30:00Z,27.8966,-93.5973,2.0,83.91041162,14.13978783,-99999.0,'11111222,11111222,99999999' 
TABS,ioos:station:wmo:42047:1,2006-01-02T22:00:00Z,27.8966,-93.5973,2.0,87.73205077,15.16187653,-99999.0,'11111222,11111222,99999999' 
TABS,ioos:station:wmo:42047:1,2006-01-02T22:30:00Z,27.8966,-93.5973,2.0,91.13544071,16.65326995,-99999.0,'11111222,11111222,99999999' 
TABS,ioos:station:wmo:42047:1,2006-01-02T23:00:00Z,27.8966,-93.5973,2.0,86.67421125,16.54786995,-99999.0,'11111222,11111222,99999999' 
TABS,ioos:station:wmo:42047:1,2006-01-02T23:30:00Z,27.8966,-93.5973,2.0,89.41350076,15.63081892,-99999.0,'11111222,11111222,99999999' 
TABS,ioos:station:wmo:42047:1,2006-01-03T00:00:00Z,27.8966,-93.5973,2.0,84.8509288,17.15924532,-99999.0,'11111222,11111222,99999999' 
TABS,ioos:station:wmo:42047:1,2006-01-03T00:30:00Z,27.8966,-93.5973,2.0,94.48459552,16.37011912,-99999.0,'11111222,11111222,99999999' 
TABS,ioos:station:wmo:42047:1,2006-01-03T01:00:00Z,27.8966,-93.5973,2.0,92.98876642,16.3021747,-99999.0,'11111222,11111222,99999999' 
TABS,ioos:station:wmo:42047:1,2006-01-03T01:30:00Z,27.8966,-93.5973,2.0,97.00055235,14.27643163,-99999.0,'11111222,11111222,99999999' 
TABS,ioos:station:wmo:42047:1,2006-01-03T02:00:00Z,27.8966,-93.5973,2.0,99.95526089,17.00606068,-99999.0,'11111222,11111222,99999999' 
TABS,ioos:station:wmo:42047:1,2006-01-03T02:30:00Z,27.8966,-93.5973,2.0,94.42626756,15.93753431,-99999.0,'11111222,11111222,99999999' 
TABS,ioos:station:wmo:42047:1,2006-01-03T03:00:00Z,27.8966,-93.5973,2.0,100.5928433,17.08109189,-99999.0,'11111222,11111222,99999999' 
TABS,ioos:station:wmo:42047:1,2006-01-03T04:00:00Z,27.8966,-93.5973,2.0,111.7594626,17.77661948,-99999.0,'11111222,11111222,99999999' 
TABS,ioos:station:wmo:42047:1,2006-01-03T04:30:00Z,27.8966,-93.5973,2.0,111.3796379,17.91265754,-99999.0,'11111222,11111222,99999999' 
TABS,ioos:station:wmo:42047:1,2006-01-03T05:00:00Z,27.8966,-93.5973,2.0,109.7856544,16.36617243,-99999.0,'11111222,11111222,99999999' 
TABS,ioos:station:wmo:42047:1,2006-01-03T05:30:00Z,27.8966,-93.5973,2.0,111.6534644,15.8268664,-99999.0,'11111222,11111222,99999999' 
TABS,ioos:station:wmo:42047:1,2006-01-03T06:30:00Z,27.8966,-93.5973,2.0,103.851868,15.83038218,-99999.0,'11111222,11111222,99999999' 
TABS,ioos:station:wmo:42047:1,2006-01-03T07:00:00Z,27.8966,-93.5973,2.0,102.1517123,16.15190701,-99999.0,'11111222,11111222,99999999' 
TABS,ioos:station:wmo:42047:1,2006-01-03T07:30:00Z,27.8966,-93.5973,2.0,106.3476818,16.23641894,-99999.0,'11111222,11111222,99999999' 
TABS,ioos:station:wmo:42047:1,2006-01-03T08:00:00Z,27.8966,-93.5973,2.0,102.9081106,15.89158897,-99999.0,'11111222,11111222,99999999' 
TABS,ioos:station:wmo:42047:1,2006-01-03T08:30:00Z,27.8966,-93.5973,2.0,100.6018891,15.8709294,-99999.0,'11111222,11111222,99999999' 
TABS,ioos:station:wmo:42047:1,2006-01-03T09:00:00Z,27.8966,-93.5973,2.0,99.46230008,15.20690633,-99999.0,'11111222,11111222,99999999' 
TABS,ioos:station:wmo:42047:1,2006-01-03T09:30:00Z,27.8966,-93.5973,2.0,102.3788991,14.92703587,-99999.0,'11111222,11111222,99999999' 
TABS,ioos:station:wmo:42047:1,2006-01-03T10:00:00Z,27.8966,-93.5973,2.0,92.19696531,15.65150472,-99999.0,'11111222,11111222,99999999' 
TABS,ioos:station:wmo:42047:1,2006-01-03T10:30:00Z,27.8966,-93.5973,2.0,92.67478846,16.92844352,-99999.0,'11111222,11111222,99999999' 
TABS,ioos:station:wmo:42047:1,2006-01-03T11:00:00Z,27.8966,-93.5973,2.0,91.71689367,15.68704242,-99999.0,'11111222,11111222,99999999' 
TABS,ioos:station:wmo:42047:1,2006-01-03T11:30:00Z,27.8966,-93.5973,2.0,93.88288948,17.72067719,-99999.0,'11111222,11111222,99999999' 
TABS,ioos:station:wmo:42047:1,2006-01-03T12:00:00Z,27.8966,-93.5973,2.0,93.52577363,16.26077796,-99999.0,'11111222,11111222,99999999' 
TABS,ioos:station:wmo:42047:1,2006-01-03T12:30:00Z,27.8966,-93.5973,2.0,99.68514287,15.21688536,-99999.0,'11111222,11111222,99999999' 
TABS,ioos:station:wmo:42047:1,2006-01-03T13:00:00Z,27.8966,-93.5973,2.0,99.69320715,15.5013064,-99999.0,'11111222,11111222,99999999' 
TABS,ioos:station:wmo:42047:1,2006-01-03T13:30:00Z,27.8966,-93.5973,2.0,108.1875556,16.11511713,-99999.0,'11111222,11111222,99999999' 
TABS,ioos:station:wmo:42047:1,2006-01-03T14:00:00Z,27.8966,-93.5973,2.0,105.5500583,16.52486914,-99999.0,'11111222,11111222,99999999' 
TABS,ioos:station:wmo:42047:1,2006-01-03T15:00:00Z,27.8966,-93.5973,2.0,109.7944573,14.79413735,-99999.0,'11111222,11111222,99999999' 
TABS,ioos:station:wmo:42047:1,2006-01-03T15:30:00Z,27.8966,-93.5973,2.0,99.63880405,16.54354859,-99999.0,'11111222,11111222,99999999' 
TABS,ioos:station:wmo:42047:1,2006-01-03T16:00:00Z,27.8966,-93.5973,2.0,99.81461765,16.30868787,-99999.0,'11111222,11111222,99999999' 
TABS,ioos:station:wmo:42047:1,2006-01-03T16:30:00Z,27.8966,-93.5973,2.0,89.78256026,15.81011385,-99999.0,'11111222,11111222,99999999' 
TABS,ioos:station:wmo:42047:1,2006-01-03T17:00:00Z,27.8966,-93.5973,2.0,87.26835778,15.31740513,-99999.0,'11111222,11111222,99999999' 
TABS,ioos:station:wmo:42047:1,2006-01-03T18:00:00Z,27.8966,-93.5973,2.0,82.26379908,13.3717052,-99999.0,'11111222,11111222,99999999' 
TABS,ioos:station:wmo:42047:1,2006-01-03T18:30:00Z,27.8966,-93.5973,2.0,72.72066626,11.44661085,-99999.0,'11111222,11111222,99999999' 
TABS,ioos:station:wmo:42047:1,2006-01-03T19:00:00Z,27.8966,-93.5973,2.0,63.92038426,12.67001579,-99999.0,'11111222,11111222,99999999' 
TABS,ioos:station:wmo:42047:1,2006-01-03T19:30:00Z,27.8966,-93.5973,2.0,58.83327159,10.64669902,-99999.0,'11111222,11111222,99999999' 
TABS,ioos:station:wmo:42047:1,2006-01-03T20:00:00Z,27.8966,-93.5973,2.0,62.70528875,13.69479098,-99999.0,'11111222,11111222,99999999' 
TABS,ioos:station:wmo:42047:1,2006-01-03T20:30:00Z,27.8966,-93.5973,2.0,54.88075307,14.01053889,-99999.0,'11111222,11111222,99999999' 
TABS,ioos:station:wmo:42047:1,2006-01-03T21:00:00Z,27.8966,-93.5973,2.0,52.61593312,15.15261034,-99999.0,'11111222,11111222,99999999' 
TABS,ioos:station:wmo:42047:1,2006-01-03T21:30:00Z,27.8966,-93.5973,2.0,56.98111792,14.68114778,-99999.0,'11111222,11111222,99999999' 
TABS,ioos:station:wmo:42047:1,2006-01-03T22:00:00Z,27.8966,-93.5973,2.0,61.31515481,15.35440653,-99999.0,'11111222,11111222,99999999' 
TABS,ioos:station:wmo:42047:1,2006-01-03T22:30:00Z,27.8966,-93.5973,2.0,61.57811666,16.00970955,-99999.0,'11111222,11111222,99999999' 
TABS,ioos:station:wmo:42047:1,2006-01-03T23:00:00Z,27.8966,-93.5973,2.0,74.3174636,15.87080653,-99999.0,'11111222,11111222,99999999' 
TABS,ioos:station:wmo:42047:1,2006-01-03T23:30:00Z,27.8966,-93.5973,2.0,75.67731351,18.91801522,-99999.0,'11111222,11111222,99999999' 
TABS,ioos:station:wmo:42047:1,2006-01-04T00:00:00Z,27.8966,-93.5973,2.0,75.70824891,17.94538938,-99999.0,'11111222,11111222,99999999' 
TABS,ioos:station:wmo:42047:1,2006-01-04T00:30:00Z,27.8966,-93.5973,2.0,79.20121404,18.46703008,-99999.0,'11111222,11111222,99999999' 
TABS,ioos:station:wmo:42047:1,2006-01-04T01:00:00Z,27.8966,-93.5973,2.0,88.50223114,20.27692778,-99999.0,'11111222,11111222,99999999' 
TABS,ioos:station:wmo:42047:1,2006-01-04T01:30:00Z,27.8966,-93.5973,2.0,100.7260351,21.16987482,-99999.0,'11111222,11111222,99999999' 
TABS,ioos:station:wmo:42047:1,2006-01-04T02:00:00Z,27.8966,-93.5973,2.0,102.4732716,24.63138039,-99999.0,'11111222,11111222,99999999' 
TABS,ioos:station:wmo:42047:1,2006-01-04T02:30:00Z,27.8966,-93.5973,2.0,105.1483519,26.36616392,-99999.0,'11111222,11111222,99999999' 
TABS,ioos:station:wmo:42047:1,2006-01-04T03:00:00Z,27.8966,-93.5973,2.0,108.537655,28.21388665,-99999.0,'11111222,11111222,99999999' 
TABS,ioos:station:wmo:42047:1,2006-01-04T03:30:00Z,27.8966,-93.5973,2.0,104.5875393,28.23002834,-99999.0,'11111222,11111222,99999999' 
TABS,ioos:station:wmo:42047:1,2006-01-04T04:00:00Z,27.8966,-93.5973,2.0,110.1430719,26.30919231,-99999.0,'11111222,11111222,99999999' 
TABS,ioos:station:wmo:42047:1,2006-01-04T04:30:00Z,27.8966,-93.5973,2.0,111.1697371,24.25699899,-99999.0,'11111222,11111222,99999999' 
TABS,ioos:station:wmo:42047:1,2006-01-04T05:00:00Z,27.8966,-93.5973,2.0,103.5253353,25.569122,-99999.0,'11111222,11111222,99999999' 
TABS,ioos:station:wmo:42047:1,2006-01-04T05:30:00Z,27.8966,-93.5973,2.0,101.615643,23.88924653,-99999.0,'11111222,11111222,99999999' 
TABS,ioos:station:wmo:42047:1,2006-01-04T06:00:00Z,27.8966,-93.5973,2.0,100.7209422,23.27629266,-99999.0,'11111222,11111222,99999999' 
TABS,ioos:station:wmo:42047:1,2006-01-04T06:30:00Z,27.8966,-93.5973,2.0,98.56878568,23.08771318,-99999.0,'11111222,11111222,99999999' 
TABS,ioos:station:wmo:42047:1,2006-01-04T07:00:00Z,27.8966,-93.5973,2.0,102.5699188,24.16931319,-99999.0,'11111222,11111222,99999999' 
TABS,ioos:station:wmo:42047:1,2006-01-04T07:30:00Z,27.8966,-93.5973,2.0,96.29852756,22.78755143,-99999.0,'11111222,11111222,99999999' 
TABS,ioos:station:wmo:42047:1,2006-01-04T08:00:00Z,27.8966,-93.5973,2.0,98.43927228,23.84823054,-99999.0,'11111222,11111222,99999999' 
TABS,ioos:station:wmo:42047:1,2006-01-04T09:00:00Z,27.8966,-93.5973,2.0,92.12583014,22.37539944,-99999.0,'11111222,11111222,99999999' 
TABS,ioos:station:wmo:42047:1,2006-01-04T09:30:00Z,27.8966,-93.5973,2.0,88.93662985,21.55371198,-99999.0,'11111222,11111222,99999999' 
TABS,ioos:station:wmo:42047:1,2006-01-04T10:00:00Z,27.8966,-93.5973,2.0,85.67659483,20.42813012,-99999.0,'11111222,11111222,99999999' 
TABS,ioos:station:wmo:42047:1,2006-01-04T10:30:00Z,27.8966,-93.5973,2.0,83.54675538,21.26473607,-99999.0,'11111222,11111222,99999999' 
TABS,ioos:station:wmo:42047:1,2006-01-04T11:00:00Z,27.8966,-93.5973,2.0,80.18378182,21.29171905,-99999.0,'11111222,11111222,99999999' 
TABS,ioos:station:wmo:42047:1,2006-01-04T11:30:00Z,27.8966,-93.5973,2.0,76.8493282,21.1855918,-99999.0,'11111222,11111222,99999999' 
TABS,ioos:station:wmo:42047:1,2006-01-04T12:00:00Z,27.8966,-93.5973,2.0,78.74724931,21.62573698,-99999.0,'11111222,11111222,99999999' 
TABS,ioos:station:wmo:42047:1,2006-01-04T12:30:00Z,27.8966,-93.5973,2.0,70.25388563,20.45264286,-99999.0,'11111222,11111222,99999999' 
TABS,ioos:station:wmo:42047:1,2006-01-04T13:00:00Z,27.8966,-93.5973,2.0,75.42481756,22.17358789,-99999.0,'11111222,11111222,99999999' 
TABS,ioos:station:wmo:42047:1,2006-01-04T14:00:00Z,27.8966,-93.5973,2.0,71.76790988,17.86698072,-99999.0,'11111222,11111222,99999999' 
TABS,ioos:station:wmo:42047:1,2006-01-04T14:30:00Z,27.8966,-93.5973,2.0,72.86158916,18.86781651,-99999.0,'11111222,11111222,99999999' 
TABS,ioos:station:wmo:42047:1,2006-01-04T15:00:00Z,27.8966,-93.5973,2.0,66.55633637,17.49411615,-99999.0,'11111222,11111222,99999999' 
TABS,ioos:station:wmo:42047:1,2006-01-04T16:00:00Z,27.8966,-93.5973,2.0,59.29312718,14.92224179,-99999.0,'11111222,11111222,99999999' 
TABS,ioos:station:wmo:42047:1,2006-01-04T16:30:00Z,27.8966,-93.5973,2.0,56.31996879,15.95872489,-99999.0,'11111222,11111222,99999999' 
TABS,ioos:station:wmo:42047:1,2006-01-04T17:00:00Z,27.8966,-93.5973,2.0,46.33911364,16.6427672,-99999.0,'11111222,11111222,99999999' 
TABS,ioos:station:wmo:42047:1,2006-01-04T17:30:00Z,27.8966,-93.5973,2.0,39.30177805,16.45081457,-99999.0,'11111222,11111222,99999999' 
TABS,ioos:station:wmo:42047:1,2006-01-04T18:00:00Z,27.8966,-93.5973,2.0,37.49921823,12.56675774,-99999.0,'11111222,11111222,99999999' 
TABS,ioos:station:wmo:42047:1,2006-01-04T18:30:00Z,27.8966,-93.5973,2.0,25.65695172,14.38866915,-99999.0,'11111222,11111222,99999999' 
TABS,ioos:station:wmo:42047:1,2006-01-04T19:00:00Z,27.8966,-93.5973,2.0,11.09908375,17.0386854,-99999.0,'11111222,11111222,99999999' 
TABS,ioos:station:wmo:42047:1,2006-01-04T19:30:00Z,27.8966,-93.5973,2.0,36.74537601,13.79003263,-99999.0,'11111222,11111222,99999999' 
TABS,ioos:station:wmo:42047:1,2006-01-04T20:00:00Z,27.8966,-93.5973,2.0,29.17524544,17.08786997,-99999.0,'11111222,11111222,99999999' 
TABS,ioos:station:wmo:42047:1,2006-01-04T20:30:00Z,27.8966,-93.5973,2.0,31.48589859,17.88289965,-99999.0,'11111222,11111222,99999999' 
TABS,ioos:station:wmo:42047:1,2006-01-04T21:00:00Z,27.8966,-93.5973,2.0,41.06443472,19.05904772,-99999.0,'11111222,11111222,99999999' 
TABS,ioos:station:wmo:42047:1,2006-01-04T21:30:00Z,27.8966,-93.5973,2.0,45.39376056,22.64209354,-99999.0,'11111222,11111222,99999999' 
TABS,ioos:station:wmo:42047:1,2006-01-04T22:00:00Z,27.8966,-93.5973,2.0,46.37795558,21.46689777,-99999.0,'11111222,11111222,99999999' 
TABS,ioos:station:wmo:42047:1,2006-01-04T22:30:00Z,27.8966,-93.5973,2.0,50.91905896,21.66813328,-99999.0,'11111222,11111222,99999999' 
TABS,ioos:station:wmo:42047:1,2006-01-04T23:00:00Z,27.8966,-93.5973,2.0,61.51404415,20.94583968,-99999.0,'11111222,11111222,99999999' 
TABS,ioos:station:wmo:42047:1,2006-01-04T23:30:00Z,27.8966,-93.5973,2.0,54.46920195,19.59935203,-99999.0,'11111222,11111222,99999999' 
TABS,ioos:station:wmo:42047:1,2006-01-05T00:00:00Z,27.8966,-93.5973,2.0,71.02638859,20.8529806,-99999.0,'11111222,11111222,99999999' 
TABS,ioos:station:wmo:42047:1,2006-01-05T00:30:00Z,27.8966,-93.5973,2.0,65.20776958,16.33558692,-99999.0,'11111222,11111222,99999999' 
TABS,ioos:station:wmo:42047:1,2006-01-05T01:00:00Z,27.8966,-93.5973,2.0,76.55955072,19.36024018,-99999.0,'11111222,11111222,99999999' 
TABS,ioos:station:wmo:42047:1,2006-01-05T01:30:00Z,27.8966,-93.5973,2.0,78.8467039,23.67718944,-99999.0,'11111222,11111222,99999999' 
TABS,ioos:station:wmo:42047:1,2006-01-05T02:00:00Z,27.8966,-93.5973,2.0,85.93334772,23.68964542,-99999.0,'11111222,11111222,99999999' 
TABS,ioos:station:wmo:42047:1,2006-01-05T02:30:00Z,27.8966,-93.5973,2.0,88.18539154,24.63235271,-99999.0,'11111222,11111222,99999999' 
TABS,ioos:station:wmo:42047:1,2006-01-05T03:00:00Z,27.8966,-93.5973,2.0,83.545732,26.06520478,-99999.0,'11111222,11111222,99999999' 